Time,TemperatureF,DewpointF,PressureIn,WindDirection,WindDirectionDegrees,WindSpeedMPH,WindSpeedGustMPH,Humidity,HourlyPrecipIn,Conditions,Clouds,dailyrainin,SolarRadiationWatts/m^2,SoftwareType,DateUTC
2013-01-15 00:04:00,27.1,9.0,30.13,North,355,10.0,14.0,46,0.00,,,0.00,0,weatherlink.com 1.10,2013-01-15 07:04:00,
2013-01-15 00:19:00,26.6,11.0,30.13,NNW,346,8.0,13.0,51,0.00,,,0.00,0,weatherlink.com 1.10,2013-01-15 07:19:00,
2013-01-15 00:34:00,24.5,7.0,30.14,NNW,341,9.0,11.0,48,0.00,,,0.00,0,weatherlink.com 1.10,2013-01-15 07:34:00,
2013-01-15 00:49:00,24.1,9.0,30.14,North,355,5.0,11.0,53,0.00,,,0.00,0,weatherlink.com 1.10,2013-01-15 07:49:00,
2013-01-15 01:04:00,24.1,10.0,30.14,North,5,6.0,9.0,56,0.00,,,0.00,0,weatherlink.com 1.10,2013-01-15 08:04:00,
2013-01-15 01:19:00,24.4,12.0,30.15,North,5,7.0,10.0,59,0.00,,,0.00,0,weatherlink.com 1.10,2013-01-15 08:19:00,
2013-01-15 01:34:00,24.3,12.0,30.16,North,351,6.0,8.0,60,0.00,,,0.00,0,weatherlink.com 1.10,2013-01-15 08:34:00,
2013-01-15 01:49:00,24.0,11.0,30.17,NNW,345,6.0,8.0,58,0.00,,,0.00,0,weatherlink.com 1.10,2013-01-15 08:49:00,
2013-01-15 02:05:00,23.2,8.0,30.18,North,355,7.0,11.0,52,0.00,,,0.00,0,weatherlink.com 1.10,2013-01-15 09:05:00,
2013-01-15 02:20:00,22.5,8.0,30.18,North,360,6.0,10.0,53,0.00,,,0.00,0,weatherlink.com 1.10,2013-01-15 09:20:00,
2013-01-15 02:35:00,21.7,7.0,30.19,North,350,5.0,8.0,54,0.00,,,0.00,0,weatherlink.com 1.10,2013-01-15 09:35:00,
2013-01-15 02:50:00,21.1,8.0,30.19,NNE,14,7.0,9.0,56,0.00,,,0.00,0,weatherlink.com 1.10,2013-01-15 09:50:00,
2013-01-15 03:05:00,20.6,7.0,30.19,North,355,7.0,8.0,57,0.00,,,0.00,0,weatherlink.com 1.10,2013-01-15 10:05:00,
2013-01-15 03:20:00,20.9,9.0,30.19,NNE,18,6.0,9.0,59,0.00,,,0.00,0,weatherlink.com 1.10,2013-01-15 10:20:00,
2013-01-15 03:35:00,20.8,8.0,30.20,North,355,7.0,9.0,59,0.00,,,0.00,0,weatherlink.com 1.10,2013-01-15 10:35:00,
2013-01-15 03:50:00,20.7,9.0,30.20,NNW,343,10.0,11.0,60,0.00,,,0.00,0,weatherlink.com 1.10,2013-01-15 10:50:00,
2013-01-15 04:05:00,20.6,9.0,30.20,North,360,6.0,10.0,61,0.00,,,0.00,0,weatherlink.com 1.10,2013-01-15 11:05:00,
2013-01-15 04:20:00,20.6,9.0,30.21,North,360,9.0,11.0,62,0.00,,,0.00,0,weatherlink.com 1.10,2013-01-15 11:20:00,
2013-01-15 04:35:00,21.4,9.0,30.21,NNE,25,4.0,10.0,60,0.00,,,0.00,0,weatherlink.com 1.10,2013-01-15 11:35:00,
2013-01-15 04:50:00,20.7,9.0,30.21,North,360,12.0,15.0,62,0.00,,,0.00,0,weatherlink.com 1.10,2013-01-15 11:50:00,
2013-01-15 05:05:00,19.7,9.0,30.22,NNE,13,6.0,15.0,62,0.00,,,0.00,0,weatherlink.com 1.10,2013-01-15 12:05:00,
2013-01-15 05:20:00,19.6,9.0,30.22,NNE,12,11.0,16.0,63,0.00,,,0.00,0,weatherlink.com 1.10,2013-01-15 12:20:00,
2013-01-15 05:35:00,20.1,9.0,30.23,NNE,15,6.0,14.0,62,0.00,,,0.00,0,weatherlink.com 1.10,2013-01-15 12:35:00,
2013-01-15 05:50:00,19.6,8.0,30.24,North,355,8.0,12.0,62,0.00,,,0.00,0,weatherlink.com 1.10,2013-01-15 12:50:00,
2013-01-15 06:05:00,19.4,8.0,30.25,North,5,10.0,17.0,62,0.00,,,0.00,0,weatherlink.com 1.10,2013-01-15 13:05:00,
2013-01-15 06:20:00,19.1,8.0,30.27,North,5,14.0,16.0,62,0.00,,,0.00,0,weatherlink.com 1.10,2013-01-15 13:20:00,
2013-01-15 06:35:00,19.1,8.0,30.27,North,360,7.0,16.0,61,0.00,,,0.00,0,weatherlink.com 1.10,2013-01-15 13:35:00,
2013-01-15 06:50:00,19.1,7.0,30.28,North,360,10.0,16.0,60,0.00,,,0.00,0,weatherlink.com 1.10,2013-01-15 13:50:00,
2013-01-15 07:05:00,18.8,7.0,30.29,North,5,11.0,17.0,59,0.00,,,0.00,0,weatherlink.com 1.10,2013-01-15 14:05:00,
2013-01-15 07:20:00,18.1,6.0,30.29,North,5,11.0,14.0,60,0.00,,,0.00,11,weatherlink.com 1.10,2013-01-15 14:20:00,
2013-01-15 07:35:00,17.6,6.0,30.30,North,5,10.0,13.0,61,0.00,,,0.00,18,weatherlink.com 1.10,2013-01-15 14:35:00,
2013-01-15 07:51:00,18.4,7.0,30.31,NNE,17,11.0,14.0,60,0.00,,,0.00,65,weatherlink.com 1.10,2013-01-15 14:51:00,
2013-01-15 08:06:00,19.2,7.0,30.32,North,5,11.0,15.0,58,0.00,,,0.00,116,weatherlink.com 1.10,2013-01-15 15:06:00,
2013-01-15 08:21:00,20.1,7.0,30.32,North,5,12.0,18.0,56,0.00,,,0.00,169,weatherlink.com 1.10,2013-01-15 15:21:00,
2013-01-15 08:36:00,21.1,7.0,30.32,NNE,28,8.0,15.0,54,0.00,,,0.00,223,weatherlink.com 1.10,2013-01-15 15:36:00,
2013-01-15 08:51:00,21.5,7.0,30.34,North,360,6.0,15.0,53,0.00,,,0.00,269,weatherlink.com 1.10,2013-01-15 15:51:00,
2013-01-15 09:06:00,21.8,6.0,30.35,North,355,11.0,15.0,51,0.00,,,0.00,311,weatherlink.com 1.10,2013-01-15 16:06:00,
2013-01-15 09:21:00,22.4,7.0,30.35,NNE,15,6.0,15.0,51,0.00,,,0.00,353,weatherlink.com 1.10,2013-01-15 16:21:00,
2013-01-15 09:36:00,23.3,6.0,30.35,North,5,15.0,15.0,48,0.00,,,0.00,396,weatherlink.com 1.10,2013-01-15 16:36:00,
2013-01-15 09:51:00,24.8,6.0,30.35,North,5,13.0,18.0,44,0.00,,,0.00,431,weatherlink.com 1.10,2013-01-15 16:51:00,
2013-01-15 10:06:00,25.2,5.0,30.35,North,9,10.0,16.0,42,0.00,,,0.00,468,weatherlink.com 1.10,2013-01-15 17:06:00,
2013-01-15 10:21:00,26.2,5.0,30.35,NNW,347,12.0,16.0,40,0.00,,,0.00,496,weatherlink.com 1.10,2013-01-15 17:21:00,
2013-01-15 10:36:00,26.8,5.0,30.35,North,5,11.0,16.0,39,0.00,,,0.00,524,weatherlink.com 1.10,2013-01-15 17:36:00,
2013-01-15 10:51:00,27.9,5.0,30.35,NNW,336,12.0,15.0,37,0.00,,,0.00,548,weatherlink.com 1.10,2013-01-15 17:51:00,
2013-01-15 11:06:00,29.5,5.0,30.34,NNE,15,12.0,12.0,36,0.00,,,0.00,568,weatherlink.com 1.10,2013-01-15 18:06:00,
2013-01-15 11:21:00,29.6,5.0,30.34,North,349,12.0,16.0,35,0.00,,,0.00,584,weatherlink.com 1.10,2013-01-15 18:21:00,
2013-01-15 11:37:00,30.6,6.0,30.34,NNW,344,10.0,19.0,35,0.00,,,0.00,598,weatherlink.com 1.10,2013-01-15 18:37:00,
2013-01-15 11:52:00,31.5,5.0,30.33,NW,319,11.0,19.0,33,0.00,,,0.00,608,weatherlink.com 1.10,2013-01-15 18:52:00,
2013-01-15 12:07:00,31.4,6.0,30.32,NNW,342,7.0,16.0,34,0.00,,,0.00,610,weatherlink.com 1.10,2013-01-15 19:07:00,
2013-01-15 12:22:00,32.4,4.0,30.32,NNW,335,10.0,17.0,30,0.00,,,0.00,613,weatherlink.com 1.10,2013-01-15 19:22:00,
2013-01-15 12:37:00,32.6,4.0,30.32,NNW,335,14.0,17.0,30,0.00,,,0.00,610,weatherlink.com 1.10,2013-01-15 19:37:00,
2013-01-15 12:52:00,32.9,3.0,30.32,NNW,336,13.0,16.0,28,0.00,,,0.00,603,weatherlink.com 1.10,2013-01-15 19:52:00,
2013-01-15 13:07:00,33.7,0.0,30.31,North,351,7.0,16.0,24,0.00,,,0.00,594,weatherlink.com 1.10,2013-01-15 20:07:00,
2013-01-15 13:22:00,34.1,1.0,30.31,NW,315,15.0,18.0,24,0.00,,,0.00,580,weatherlink.com 1.10,2013-01-15 20:22:00,
2013-01-15 13:37:00,34.1,-1.0,30.32,NW,324,12.0,19.0,22,0.00,,,0.00,561,weatherlink.com 1.10,2013-01-15 20:37:00,
2013-01-15 13:52:00,34.1,-1.0,30.32,NNW,338,10.0,19.0,22,0.00,,,0.00,538,weatherlink.com 1.10,2013-01-15 20:52:00,
2013-01-15 14:07:00,34.4,-3.0,30.33,WNW,297,10.0,18.0,20,0.00,,,0.00,512,weatherlink.com 1.10,2013-01-15 21:07:00,
2013-01-15 14:22:00,34.3,-3.0,30.33,NW,306,16.0,17.0,20,0.00,,,0.00,485,weatherlink.com 1.10,2013-01-15 21:22:00,
2013-01-15 14:37:00,34.6,-4.0,30.33,NW,323,9.0,19.0,19,0.00,,,0.00,450,weatherlink.com 1.10,2013-01-15 21:37:00,
2013-01-15 14:52:00,34.9,-4.0,30.34,NW,321,13.0,21.0,19,0.00,,,0.00,415,weatherlink.com 1.10,2013-01-15 21:52:00,
2013-01-15 15:07:00,35.1,-6.0,30.34,NW,307,21.0,23.0,17,0.00,,,0.00,378,weatherlink.com 1.10,2013-01-15 22:07:00,
2013-01-15 15:22:00,34.5,-5.0,30.35,NW,324,12.0,22.0,18,0.00,,,0.00,338,weatherlink.com 1.10,2013-01-15 22:22:00,
2013-01-15 15:37:00,34.6,-4.0,30.36,WNW,303,13.0,23.0,19,0.00,,,0.00,292,weatherlink.com 1.10,2013-01-15 22:37:00,
2013-01-15 15:52:00,34.5,-5.0,30.37,NNW,328,19.0,21.0,18,0.00,,,0.00,250,weatherlink.com 1.10,2013-01-15 22:52:00,
2013-01-15 16:08:00,34.4,-4.0,30.38,NNW,336,14.0,20.0,19,0.00,,,0.00,193,weatherlink.com 1.10,2013-01-15 23:08:00,
2013-01-15 16:23:00,34.4,-3.0,30.39,NNW,339,12.0,18.0,20,0.00,,,0.00,137,weatherlink.com 1.10,2013-01-15 23:23:00,
2013-01-15 16:38:00,33.8,-4.0,30.39,NW,310,12.0,20.0,20,0.00,,,0.00,83,weatherlink.com 1.10,2013-01-15 23:38:00,
2013-01-15 16:53:00,33.2,-4.0,30.39,NNW,336,12.0,19.0,20,0.00,,,0.00,28,weatherlink.com 1.10,2013-01-15 23:53:00,
2013-01-15 17:08:00,33.1,-4.0,30.39,NW,313,9.0,16.0,20,0.00,,,0.00,12,weatherlink.com 1.10,2013-01-16 00:08:00,
2013-01-15 17:23:00,31.9,-6.0,30.39,NNW,333,13.0,17.0,19,0.00,,,0.00,5,weatherlink.com 1.10,2013-01-16 00:23:00,
2013-01-15 17:38:00,30.6,-5.0,30.41,NNW,331,11.0,14.0,21,0.00,,,0.00,0,weatherlink.com 1.10,2013-01-16 00:38:00,
2013-01-15 17:53:00,29.5,-4.0,30.42,NNW,338,7.0,12.0,23,0.00,,,0.00,0,weatherlink.com 1.10,2013-01-16 00:53:00,
2013-01-15 18:08:00,28.6,-4.0,30.42,North,11,6.0,10.0,24,0.00,,,0.00,0,weatherlink.com 1.10,2013-01-16 01:08:00,
2013-01-15 18:23:00,28.5,-4.0,30.43,NNE,12,8.0,10.0,24,0.00,,,0.00,0,weatherlink.com 1.10,2013-01-16 01:23:00,
2013-01-15 18:38:00,28.5,-3.0,30.44,North,360,6.0,11.0,25,0.00,,,0.00,0,weatherlink.com 1.10,2013-01-16 01:38:00,
2013-01-15 18:53:00,27.8,-3.0,30.45,North,5,7.0,9.0,26,0.00,,,0.00,0,weatherlink.com 1.10,2013-01-16 01:53:00,
2013-01-15 19:08:00,27.7,-3.0,30.45,North,360,7.0,10.0,26,0.00,,,0.00,0,weatherlink.com 1.10,2013-01-16 02:08:00,
2013-01-15 19:23:00,27.7,-3.0,30.46,North,11,10.0,10.0,26,0.00,,,0.00,0,weatherlink.com 1.10,2013-01-16 02:23:00,
2013-01-15 19:39:00,28.0,-4.0,30.46,North,5,6.0,11.0,25,0.00,,,0.00,0,weatherlink.com 1.10,2013-01-16 02:39:00,
2013-01-15 19:54:00,28.0,-5.0,30.46,North,5,7.0,10.0,24,0.00,,,0.00,0,weatherlink.com 1.10,2013-01-16 02:54:00,
2013-01-15 20:09:00,27.4,-5.0,30.46,North,11,6.0,8.0,24,0.00,,,0.00,0,weatherlink.com 1.10,2013-01-16 03:09:00,
2013-01-15 20:24:00,26.9,-5.0,30.47,NNE,19,6.0,8.0,25,0.00,,,0.00,0,weatherlink.com 1.10,2013-01-16 03:24:00,
2013-01-15 20:39:00,27.0,-6.0,30.47,North,5,7.0,8.0,24,0.00,,,0.00,0,weatherlink.com 1.10,2013-01-16 03:39:00,
2013-01-15 20:54:00,27.4,-5.0,30.47,NNE,15,5.0,8.0,24,0.00,,,0.00,0,weatherlink.com 1.10,2013-01-16 03:54:00,
2013-01-15 21:09:00,27.1,-5.0,30.46,NNE,13,5.0,8.0,24,0.00,,,0.00,0,weatherlink.com 1.10,2013-01-16 04:09:00,
2013-01-15 21:24:00,27.2,-5.0,30.46,North,5,6.0,9.0,24,0.00,,,0.00,0,weatherlink.com 1.10,2013-01-16 04:24:00,
2013-01-15 21:39:00,27.2,-5.0,30.47,NNE,12,5.0,8.0,24,0.00,,,0.00,0,weatherlink.com 1.10,2013-01-16 04:39:00,
2013-01-15 21:54:00,26.6,-6.0,30.48,North,5,6.0,6.0,24,0.00,,,0.00,0,weatherlink.com 1.10,2013-01-16 04:54:00,
2013-01-15 22:09:00,26.4,-6.0,30.48,North,355,7.0,7.0,24,0.00,,,0.00,0,weatherlink.com 1.10,2013-01-16 05:09:00,
2013-01-15 22:24:00,25.7,-7.0,30.48,North,350,7.0,9.0,24,0.00,,,0.00,0,weatherlink.com 1.10,2013-01-16 05:24:00,
2013-01-15 22:39:00,25.4,-6.0,30.48,North,355,6.0,9.0,25,0.00,,,0.00,0,weatherlink.com 1.10,2013-01-16 05:39:00,
2013-01-15 22:54:00,24.8,-6.0,30.49,North,360,4.0,8.0,26,0.00,,,0.00,0,weatherlink.com 1.10,2013-01-16 05:54:00,
2013-01-15 23:10:00,24.9,-6.0,30.49,North,360,2.0,6.0,25,0.00,,,0.00,0,weatherlink.com 1.10,2013-01-16 06:10:00,
2013-01-15 23:25:00,24.3,-6.0,30.50,North,360,4.0,5.0,26,0.00,,,0.00,0,weatherlink.com 1.10,2013-01-16 06:25:00,
2013-01-15 23:40:00,23.7,-7.0,30.50,North,360,1.0,4.0,26,0.00,,,0.00,0,weatherlink.com 1.10,2013-01-16 06:40:00,
2013-01-15 23:55:00,22.6,-6.0,30.52,North,360,3.0,3.0,28,0.00,,,0.00,0,weatherlink.com 1.10,2013-01-16 06:55:00,